COSMOS 2251 DEB, 34721

Orbit data source: Space-Track

COSMOS 2251 DEB, 34721 is space debris in LEO originally from a launch on Wed, 16 Jun 1993 UTC launched from the Plesetsk Missile And Space Complex (PKMTR). The debris from Iridium 33, an American commercial communications satellite, has been tracked extensively since its accidental collision with the defunct Russian satellite Cosmos 2251 in 2009. This event, occurring at high speed in low Earth orbit (LEO), generated thousands of pieces of space debris, significantly increasing the risk of further collisions. The Iridium 33 debris cloud has impacted space traffic management and orbital debris mitigation strategies, making it a subject of ongoing study in space situational awareness.

Loading next visibility...
Identifier
34721, 1993-036YP
Orbit
LEO
Country
Flag of CISCIS
Related business
Manufacturer
Unknown
Mission
Spacecraft
Bus & Motor
Unknown
Mass
Unknown
Launch date (UTC)
1993-06-16 (33 years ago)
Launch vehicle
Unknown
Launch site
Plesetsk Missile And Space Complex (PKMTR)
Object type
Payload
Rocket body
Debris
Shape & HBR
Unknown shape, 0.1 m
Radar Cross Section
Small (<0.1 m²)

Expand to show TLE details & history
Last TLE update: 2 days ago

TLE from 2 days ago
0 COSMOS 2251 DEB
1 34721U 93036YP  26122.65490188  .00002847  00000-0  16752-2 0  9996
2 34721  73.9225  81.6647 0216278 351.8089 191.4602 13.97452104871172
Epoch: 2026-05-02T15:43Z
TLE epoch observation values (Epoch: 2026-05-02T15:43:03.522Z)
Latitude
-2.80439°
Longitude
166.13512°
Altitude
1,060.08 km
Speed
7.244 km/s
True Right ascension
17h 29m 52s
True Declination
-2° 47' 18"
Sunlit
Object was in full shadow at epoch
Visualization orbit readout
Latitude
Unknown
Longitude
Unknown
Altitude
Unknown
Speed
Unknown
Apparent Right ascension
Unknown
Apparent Declination
Unknown
Sunlit
N/A
Visualization observer readout
Local Sidereal Time
16:39:49
Azimuth
Unknown
Elevation
Unknown
Doppler factor
Unknown
Orbital elements
Apogee altitude
1,057.723 km
Perigee altitude
742.89 km
Semi-major axis
7,278.443 km
Eccentricity
0.02163
Inclination
73.9225°
RAAN
81.6647°
Arg. of periapsis
351.8089°
True anomaly
190.98051°
Mean anomaly
191.4602°
Eccentric anomaly
191.2191°
Mean motion
3.49531 °/min
Orbital period
103 mins
BSTAR
0.0016752
Loading maneuver chart data...
Computing Atmospheric mass density...
Loading historical data...
Loading historical data...
Loading historical data...
Loading historical data...
Loading historical data...
Loading historical data...
Loading historical data...

Documentation

Showing up to 5 results
|